Weather History for KRND - June, 2014

Change the Weather History Date:

Wednesday, June 25, 2014

  Actual Average Record
Temperature  
Mean Temperature 78 °F -  
Max Temperature 88 °F 89 °F 101 °F (2012)
Min Temperature 68 °F 71 °F 68 °F (1997)
Cooling Degree Days 12    
Growing Degree Days 28 (Base 50)    
Moisture  
Dew Point 71 °F    
Average Humidity 88    
Maximum Humidity 94    
Minimum Humidity 57    
Precipitation  
Precipitation 0.63 in - - ()
Sea Level Pressure  
Sea Level Pressure 30.00 in    
Wind  
Wind Speed 7 mph (SE)    
Max Wind Speed 26 mph    
Max Gust Speed 36 mph    
Visibility 9 miles    
Events Rain , Thunderstorm    
Averages and records for this station are not official NWS values.
T = Trace of Precipitation, MM = Missing Value Source: NWS Daily Summary

Daily Weather History Graph

Daily Weather History Graph

Search for Another Location

Airport or City:

Trip Planner

Search our weather history database for the weather conditions in past years. The results will help you decide how hot, cold, wet, or windy it might be!

Date:

Astronomy

Jun. 25, 2014 Rise Set
Actual Time 6:34 AM CDT 8:36 PM CDT
Civil Twilight 6:07 AM CDT 9:04 PM CDT
Nautical Twilight 5:34 AM CDT 9:37 PM CDT
Astronomical Twilight 4:58 AM CDT 10:12 PM CDT
Moon 5:20 AM CDT (6/25) 7:16 PM CDT (6/25)
Length of Visible Light 14h 56m
Length of Day
14h 02m
Waning Crescent, 3% of the Moon is Illuminated
Jun 25
Waning Crescent
Jun 27
New
Jul 5
First Quarter
Jul 12
Full
Jul 18
Last Quarter

Hourly Weather History & Observations

Time (CDT) Temp. Heat Index Dew Point Humidity Pressure Visibility Wind Dir Wind Speed Gust Speed Precip Events Conditions
12:58 AM 74.8 °F - 72.5 °F 92% 30.03 in 10.0 mi East 5.8 mph - N/A   Scattered Clouds
1:58 AM 74.7 °F - 72.3 °F 92% 30.00 in 10.0 mi SE 3.5 mph - N/A   Mostly Cloudy
2:38 AM 75.2 °F - 71.6 °F 89% 30.02 in 10.0 mi East 2.3 mph - N/A   Overcast
2:43 AM 75.2 °F - 71.6 °F 89% 30.01 in 10.0 mi East 2.3 mph - N/A   Overcast
2:58 AM 75.2 °F - 72.9 °F 92% 29.99 in 10.0 mi East 3.5 mph - N/A   Overcast
3:08 AM 75.2 °F - 73.4 °F 94% 30.00 in 10.0 mi East 2.3 mph - N/A   Overcast
3:43 AM 75.2 °F - 73.4 °F 94% 30.00 in 10.0 mi East 3.5 mph - N/A   Overcast
3:58 AM 75.6 °F - 73.2 °F 92% 29.98 in 10.0 mi ESE 2.3 mph - N/A   Overcast
4:58 AM 76.3 °F - 73.8 °F 92% 29.99 in 10.0 mi SE 4.6 mph - N/A   Overcast
5:30 AM 77.0 °F - 73.4 °F 89% 30.00 in 7.0 mi SE 6.9 mph - N/A Rain Light Rain
5:35 AM 77.0 °F - 73.4 °F 89% 30.00 in 7.0 mi SE 5.8 mph - N/A Rain Light Rain
5:40 AM 77.0 °F - 73.4 °F 89% 30.00 in 10.0 mi SE 6.9 mph - N/A Rain Light Rain
5:41 AM 77.0 °F - 73.4 °F 89% 30.00 in 10.0 mi SE 5.8 mph - N/A   Overcast
5:58 AM 76.5 °F - 74.3 °F 93% 29.98 in 10.0 mi SSE 5.8 mph - 0.01 in   Overcast
6:08 AM 77.0 °F - 75.2 °F 94% 30.01 in 10.0 mi SE 4.6 mph - N/A   Overcast
6:38 AM 75.2 °F - 73.4 °F 94% 30.02 in 10.0 mi SE 4.6 mph - N/A   Overcast
6:51 AM 75.2 °F - 73.4 °F 94% 30.02 in 10.0 mi ESE 2.3 mph - N/A Rain Light Rain
6:58 AM 75.2 °F - 73.4 °F 94% 29.99 in 6.0 mi ESE 3.5 mph - N/A Rain Light Rain
7:01 AM 75.2 °F - 73.4 °F 94% 30.01 in 6.0 mi ESE 3.5 mph - N/A   Mostly Cloudy
7:17 AM 77.0 °F - 75.2 °F 94% 30.02 in 6.0 mi SE 4.6 mph - N/A Thunderstorm Mostly Cloudy
7:32 AM 77.0 °F - 75.2 °F 94% 30.02 in 10.0 mi ESE 16.1 mph 24.2 mph N/A Thunderstorm Scattered Clouds
7:37 AM 75.2 °F - 71.6 °F 89% 30.02 in 10.0 mi SE 20.7 mph 27.6 mph N/A Thunderstorm Mostly Cloudy
7:42 AM 73.4 °F - 69.8 °F 88% 30.02 in 10.0 mi SE 18.4 mph 27.6 mph N/A   Mostly Cloudy
7:47 AM 73.4 °F - 69.8 °F 88% 30.02 in 6.0 mi ESE 19.6 mph 26.5 mph N/A Rain , Thunderstorm Rain
7:58 AM 72.5 °F - 68.9 °F 88% 30.01 in 7.0 mi SE 16.1 mph - 0.04 in Rain , Thunderstorm Light Thunderstorms and Rain
8:37 AM 69.8 °F - 68.0 °F 94% 30.05 in 10.0 mi SE 15.0 mph 25.3 mph N/A Thunderstorm Thunderstorm
8:43 AM 69.8 °F - 66.2 °F 88% 30.05 in 7.0 mi SSE 16.1 mph 25.3 mph N/A Rain , Thunderstorm Light Thunderstorms and Rain
8:51 AM 69.8 °F - 66.2 °F 88% 30.06 in 3.0 mi SSE 17.3 mph - N/A Rain , Thunderstorm Thunderstorms and Rain
8:58 AM 68.0 °F - 66.2 °F 94% 30.04 in 2.0 mi SE 11.5 mph - 0.13 in Rain , Thunderstorm Heavy Thunderstorms and Rain
9:25 AM 69.8 °F - 66.2 °F 88% 30.08 in 7.0 mi Variable 1.2 mph - N/A Rain , Thunderstorm Light Thunderstorms and Rain
9:58 AM 69.1 °F - 67.3 °F 94% 30.04 in 7.0 mi NW 2.3 mph - 0.42 in Rain , Thunderstorm Light Thunderstorms and Rain
10:22 AM 71.6 °F - 69.8 °F 94% 30.06 in 10.0 mi West 3.5 mph - N/A Rain Light Rain
10:58 AM - - - N/A% 30.01 in 10.0 mi ESE 11.5 mph - 0.03 in   Light Drizzle
11:01 AM 71.6 °F - 68.0 °F 88% 30.03 in 10.0 mi ESE 12.7 mph - N/A   Mostly Cloudy
11:58 AM 75.0 °F - 70.0 °F 84% 30.01 in 10.0 mi SE 8.1 mph - 0.00 in   Mostly Cloudy
12:58 PM 79.0 °F - 71.8 °F 78% 30.01 in 10.0 mi SE 9.2 mph - N/A   Scattered Clouds
1:58 PM 81.9 °F 85.8 °F 70.2 °F 68% 29.98 in 10.0 mi Variable 2.3 mph - N/A   Mostly Cloudy
2:58 PM 86.2 °F 91.1 °F 70.2 °F 59% 29.96 in 10.0 mi Variable 2.3 mph - N/A   Mostly Cloudy
3:58 PM 87.1 °F 92.0 °F 70.0 °F 57% 29.94 in 10.0 mi Variable 5.8 mph - N/A   Scattered Clouds
4:58 PM 86.0 °F 91.1 °F 70.9 °F 60% 29.93 in 10.0 mi East 8.1 mph - N/A   Partly Cloudy
5:58 PM 81.9 °F 86.8 °F 72.5 °F 73% 29.95 in 10.0 mi ESE 15.0 mph - N/A   Mostly Cloudy
6:00 PM 82.4 °F 88.2 °F 73.4 °F 74% 29.97 in 10.0 mi ESE 19.6 mph 24.2 mph N/A   Light Drizzle
6:25 PM 78.8 °F - 73.4 °F 83% 29.97 in 10.0 mi SE 15.0 mph - N/A   Partly Cloudy
6:58 PM 78.8 °F - 73.4 °F 83% 29.94 in 10.0 mi SE 21.9 mph 26.5 mph 0.00 in   Mostly Cloudy
7:03 PM 77.0 °F - 69.8 °F 78% 29.97 in 10.0 mi SSE 26.5 mph 35.7 mph N/A   Mostly Cloudy
7:08 PM 75.2 °F - 68.0 °F 78% 29.97 in 10.0 mi SSE 20.7 mph 35.7 mph N/A   Mostly Cloudy
7:13 PM 73.4 °F - 68.0 °F 83% 29.97 in 10.0 mi SSE 20.7 mph 32.2 mph N/A   Scattered Clouds
7:43 PM 73.4 °F - 69.8 °F 88% 30.01 in 10.0 mi South 10.4 mph 20.7 mph N/A   Mostly Cloudy
7:58 PM 72.7 °F - 69.1 °F 88% 29.99 in 10.0 mi SSE 6.9 mph - N/A   Overcast
8:13 PM 73.4 °F - 69.8 °F 88% 30.02 in 10.0 mi SE 6.9 mph - N/A   Mostly Cloudy
8:48 PM 71.6 °F - 69.8 °F 94% 30.00 in 10.0 mi SSE 8.1 mph - N/A   Mostly Cloudy
9:01 PM 71.6 °F - 69.8 °F 94% 30.01 in 10.0 mi SE 8.1 mph - N/A   Mostly Cloudy
9:06 PM 71.6 °F - 69.8 °F 94% 30.01 in 10.0 mi SE 6.9 mph - N/A   Scattered Clouds
9:31 PM 71.6 °F - 68.0 °F 88% 30.01 in 10.0 mi SE 5.8 mph - N/A   Mostly Cloudy
9:36 PM 71.6 °F - 68.0 °F 88% 30.01 in 10.0 mi SE 6.9 mph - N/A   Mostly Cloudy
9:41 PM 71.6 °F - 69.8 °F 94% 30.00 in 10.0 mi SSE 8.1 mph - N/A   Overcast
9:58 PM 71.1 °F - 68.9 °F 93% 29.99 in 10.0 mi East 3.5 mph - N/A   Overcast
10:23 PM 71.6 °F - 69.8 °F 94% 30.01 in 10.0 mi East 4.6 mph - N/A   Mostly Cloudy
10:28 PM 71.6 °F - 69.8 °F 94% 30.01 in 10.0 mi ENE 4.6 mph - N/A   Scattered Clouds
10:58 PM 71.2 °F - 69.1 °F 93% 29.98 in 10.0 mi ESE 10.4 mph - N/A   Clear
11:17 PM 71.6 °F - 69.8 °F 94% 30.00 in 10.0 mi Calm Calm - N/A   Partly Cloudy
11:27 PM 71.6 °F - 69.8 °F 94% 30.00 in 10.0 mi North 2.3 mph - N/A   Mostly Cloudy
11:32 PM 71.6 °F - 69.8 °F 94% 30.00 in 10.0 mi Calm Calm - N/A   Mostly Cloudy
11:58 PM 71.2 °F - 69.1 °F 93% 29.97 in 10.0 mi SSE 3.5 mph - N/A   Partly Cloudy